TimeADT,TemperatureF,Dew PointF,Humidity,Sea Level PressureIn,VisibilityMPH,Wind Direction,Wind SpeedMPH,Gust SpeedMPH,PrecipitationIn,Events,Conditions,WindDirDegrees,DateUTC
12:00 AM,60.8,59.0,94,29.82,15.0,Calm,Calm,-,N/A,,Partly Cloudy,0,2013-08-20 03:00:00
1:00 AM,60.8,59.0,94,29.83,15.0,West,3.5,-,N/A,,Partly Cloudy,270,2013-08-20 04:00:00
2:00 AM,60.8,59.0,94,29.83,15.0,WNW,2.3,-,N/A,,Partly Cloudy,290,2013-08-20 05:00:00
3:00 AM,62,61,96,29.85,15,WSW,4.6,,,,Scattered Clouds,250,2013-08-20 06:00:00
3:00 AM,62.6,60.8,94,29.85,15.0,WSW,4.6,-,N/A,,Partly Cloudy,250,2013-08-20 06:00:00
4:00 AM,59.0,57.2,94,29.86,15.0,Calm,Calm,-,N/A,,Partly Cloudy,0,2013-08-20 07:00:00
5:00 AM,57.2,55.4,94,29.88,15.0,Calm,Calm,-,N/A,,Scattered Clouds,0,2013-08-20 08:00:00
6:00 AM,55.4,55.4,100,29.90,15.0,NNE,2.3,-,N/A,Fog,Shallow Fog,30,2013-08-20 09:00:00
7:00 AM,55.4,53.6,94,29.93,15.0,East,2.3,-,N/A,Fog,Shallow Fog,90,2013-08-20 10:00:00
8:00 AM,62.6,60.8,94,29.95,15.0,ENE,3.5,-,N/A,,Mostly Cloudy,70,2013-08-20 11:00:00
9:00 AM,66,62,82,29.97,15,East,8.1,,,,Scattered Clouds,80,2013-08-20 12:00:00
9:00 AM,66.2,62.6,88,29.96,15.0,East,8.1,-,N/A,,Mostly Cloudy,80,2013-08-20 12:00:00
10:00 AM,66.2,60.8,83,29.98,15.0,ENE,8.1,-,N/A,,Mostly Cloudy,70,2013-08-20 13:00:00
10:29 AM,68.0,62.6,83,29.99,15.0,ENE,8.1,-,N/A,,Mostly Cloudy,70,2013-08-20 13:29:00
11:00 AM,68.0,62.6,83,30.01,15.0,ENE,5.8,-,N/A,,Mostly Cloudy,70,2013-08-20 14:00:00
12:00 PM,69.8,62.6,78,30.02,15.0,NNE,10.4,-,N/A,,Mostly Cloudy,20,2013-08-20 15:00:00
1:00 PM,73.4,62.6,69,30.02,15.0,East,10.4,-,N/A,,Mostly Cloudy,80,2013-08-20 16:00:00
2:00 PM,68.0,59.0,73,30.04,15.0,ENE,10.4,-,N/A,,Overcast,60,2013-08-20 17:00:00
3:00 PM,68,59,65,30.05,15,ENE,11.5,,,,Mostly Cloudy,60,2013-08-20 18:00:00
3:00 PM,68.0,59.0,73,30.05,15.0,ENE,9.2,-,N/A,,Mostly Cloudy,60,2013-08-20 18:00:00
4:00 PM,68.0,59.0,73,30.05,15.0,NE,11.5,17.3,N/A,,Mostly Cloudy,40,2013-08-20 19:00:00
5:00 PM,68.0,57.2,68,30.06,15.0,NE,10.4,-,N/A,,Mostly Cloudy,50,2013-08-20 20:00:00
6:00 PM,64.4,57.2,77,30.07,15.0,NNE,10.4,-,N/A,,Mostly Cloudy,20,2013-08-20 21:00:00
7:00 PM,62.6,57.2,82,30.09,15.0,NE,6.9,-,N/A,,Mostly Cloudy,50,2013-08-20 22:00:00
8:00 PM,60.8,55.4,82,30.09,15.0,NE,6.9,-,N/A,,Mostly Cloudy,40,2013-08-20 23:00:00
9:00 PM,58,55,85,30.11,15,East,4.6,,,,Scattered Clouds,90,2013-08-21 00:00:00
9:00 PM,59.0,55.4,88,30.11,15.0,East,4.6,-,N/A,,Mostly Cloudy,100,2013-08-21 00:00:00
10:00 PM,57.2,53.6,88,30.11,15.0,East,5.8,-,N/A,,Mostly Cloudy,90,2013-08-21 01:00:00
11:00 PM,59.0,55.4,88,30.11,15.0,East,3.5,-,N/A,,Mostly Cloudy,100,2013-08-21 02:00:00